Home   Weather   Erlangen   Past weeks

Flag for Germany Past Weather in Erlangen, Bavaria, Germany — Yesterday and Last 2 Weeks

48 °F

Partly sunny.

Feels Like: 45 °F
Forecast: 49 / 57 °F
Wind: 8 mph from East

Location: Nuernberg

Current Time: Oct 24, 2016 at 9:01:53 AM

Latest Report: Oct 24, 2016 at 8:20 AM

Visibility: 6 mi

Pressure: 29.95 "Hg

Humidity: 100%

Dew Point: 48 °F

Location of ErlangenLocation

Past Weather in Erlangen — Graph


Erlangen Temperature Yesterday

Maximum temperature yesterday: 54 °F (at 3:50 PM)
Minimum temperature yesterday: 36 °F (at 12:50 AM)
Average temperature yesterday: 44 °F

High & Low Weather Summary for the Past Weeks

High66 °F (Oct 16, 2:20 PM)100% (Oct 9, 7:20 AM)30.24 "Hg (Oct 9, 7:20 AM)
Low30 °F (Oct 10, 4:20 AM)47% (Oct 10, 5:50 PM)29.71 "Hg (Oct 14, 6:20 PM)
Average46 °F90%30.04 "Hg
* Reported Oct 9 7:20 AM — Oct 24 7:50 AM, Erlangen, Weather by CustomWeather, © 2016

Note: Actual official high and low records may vary slightly from our data, if they occured in-between our weather recording intervals... More about our weather records


Erlangen Weather History for the Previous 24 Hours

Scroll right to see more
Time TempWeatherWind HumidityBarometerVisibility
7:50 AM
Mon, Oct 24
48 °FPassing clouds.6 mph100%29.95 "Hg4 mi
7:20 AM48 °FPassing clouds.5 mph100%29.95 "Hg4 mi
6:50 AM46 °FLight rain. Passing clouds.5 mph100%29.95 "Hg4 mi
6:20 AM46 °FFog.5 mph100%29.95 "Hg4 mi
5:50 AM46 °FFog.5 mph100%29.95 "Hg4 mi
5:20 AM46 °FLight rain. Passing clouds.5 mph100%29.95 "Hg4 mi
4:50 AM46 °FPassing clouds.3 mph100%29.95 "Hg5 mi
4:20 AM46 °FPassing clouds.7 mph100%29.92 "Hg5 mi
3:50 AM46 °FLight rain. Passing clouds.7 mph100%29.92 "Hg4 mi
3:20 AM46 °FLight rain. Passing clouds.7 mph100%29.92 "Hg6 mi
2:50 AM46 °FLight rain. Passing clouds.7 mph100%29.92 "Hg4 mi
2:20 AM46 °FLight rain. Passing clouds.3 mph100%29.95 "Hg5 mi
1:50 AM46 °FLight rain. Passing clouds.3 mph100%29.92 "Hg6 mi
1:20 AM46 °FRain. Passing clouds.6 mph100%29.92 "HgN/A
12:50 AM46 °FLight rain. Partly cloudy.5 mph100%29.92 "HgN/A
12:20 AM46 °FLight rain. Passing clouds.6 mph100%29.92 "HgN/A
11:50 PM
Sun, Oct 23
46 °FLight rain. Passing clouds.3 mph100%29.92 "HgN/A
11:20 PM48 °FLight rain. Passing clouds.6 mph94%29.92 "HgN/A
10:50 PM46 °FPassing clouds.6 mph93%29.92 "HgN/A
10:20 PM46 °FPassing clouds.5 mph100%29.92 "HgN/A
9:50 PM46 °FClear.3 mph93%29.92 "Hg10 mi
9:20 PM46 °FClear.3 mph93%29.92 "Hg10 mi
8:50 PM46 °FClear.5 mph93%29.92 "Hg10 mi
8:20 PM46 °FClear.3 mph93%29.92 "Hg10 mi
7:50 PM48 °FClear.1 mph87%29.89 "Hg10 mi
7:20 PM48 °FClear.2 mph87%29.89 "Hg10 mi
6:50 PM46 °FClear.5 mph93%29.89 "Hg10 mi
6:20 PM48 °FClear.5 mph87%29.89 "Hg10 mi
5:50 PM48 °FSunny.7 mph87%29.89 "Hg10 mi
5:20 PM50 °FSunny.7 mph82%29.89 "Hg10 mi
4:50 PM52 °FPassing clouds.5 mph72%29.89 "HgN/A
4:20 PM52 °FSunny.7 mph72%29.89 "Hg10 mi
3:50 PM54 °FPassing clouds.9 mph67%29.89 "HgN/A
3:20 PM52 °FPassing clouds.7 mph67%29.89 "HgN/A
2:50 PM52 °FPassing clouds.10 mph67%29.89 "HgN/A
2:20 PM50 °FBroken clouds.10 mph71%29.89 "HgN/A
1:50 PM50 °FPartly sunny.10 mph71%29.89 "HgN/A
1:20 PM52 °FPartly sunny.9 mph77%29.92 "HgN/A
12:50 PM50 °FPartly sunny.8 mph82%29.92 "HgN/A
12:20 PM48 °FPartly sunny.8 mph87%29.92 "HgN/A
11:50 AM48 °FPassing clouds.8 mph87%29.95 "HgN/A
11:20 AM45 °FPassing clouds.7 mph93%29.95 "HgN/A
10:50 AM43 °FPassing clouds.6 mph100%29.95 "HgN/A
10:20 AM41 °FPassing clouds.5 mph100%29.95 "HgN/A
9:50 AM41 °FPassing clouds.5 mph100%29.95 "HgN/A
9:20 AM39 °FClear.5 mph100%29.95 "Hg4 mi
Weather by CustomWeather, © 2016

See weather overviewHow to use our weather pages